User: anonymous   Login
Location: Brno
(49.2000°N, 16.6330°E)
Time: 01:31:40
(UTC+02:00)
Language:

Cosmos 332 Rocket - Orbit

View from above orbital plane
View from above orbital plane
View from above satellite
View from above satellite

Ground track
Ground track

The orbit data is extracted from the following two-line orbital elements,

1  4370U 70028B   17115.72059205 +.00000165 +00000-0 +40718-4 0  9992
2  4370 074.0399 189.2923 0014450 123.2133 237.0420 14.59850684004328
Epoch (UTC): 25 April 2017 17:17:39
Eccentricity: 0.0014450
inclination: 74.0399°
perigee height: 683 km
apogee height: 704 km
right ascension of ascending node: 189.2923°
argument of perigee: 123.2133°
revolutions per day: 14.59850684
mean anomaly at epoch: 237.0420°
orbit number at epoch: 432

The dashed part of the orbit path shows where the satellite is in the earth's shadow,  

DLR